Saginaw Browne, MI

11:30 PM EDT on May 24, 2018 (GMT -0400)
Saginaw County-Browne

Weather History for KHYX - July, 2013

Change the Weather History Date:

Saturday, July 27, 2013

  Actual Average (KMBS) Record (KMBS)
Temperature  
Mean Temperature 67 °F -  
Max Temperature 77 °F 80 °F 91 °F (1997)
Min Temperature 55 °F 58 °F 46 °F (2001)
Cooling Degree Days 2    
Growing Degree Days 17 (Base 50)    
Moisture  
Dew Point 61 °F    
Average Humidity 85    
Maximum Humidity 100    
Minimum Humidity 47    
Precipitation  
Precipitation 0.00 in - - ()
Sea Level Pressure  
Sea Level Pressure 29.81 in    
Wind  
Wind Speed 7 mph (SW)    
Max Wind Speed 21 mph    
Max Gust Speed 31 mph    
Visibility 10 miles    
Events Rain    
Averages and records for this station are not official NWS values.
T = Trace of Precipitation, MM = Missing Value Source: NWS Daily Summary

Daily Weather History Graph

Daily Weather History Graph

Search for Another Location

Airport or City:

Astronomy

Jul. 27, 2013 Rise Set
Actual Time 6:20 AM EDT 9:03 PM EDT
Civil Twilight 5:47 AM EDT 9:36 PM EDT
Nautical Twilight 5:05 AM EDT 10:17 PM EDT
Astronomical Twilight 4:17 AM EDT 11:05 PM EDT
Moon 11:37 PM EDT (7/27) 12:11 PM EDT (7/27)
Length of Visible Light 15h 49m
Length of Day
14h 42m
Waning Gibbous, 71% of the Moon is Illuminated
Jul 27
Waning Gibbous
Jul 29
Last Quarter
Aug 6
New
Aug 14
First Quarter
Aug 20
Full

Hourly Weather History & Observations

Time (EDT) Temp. Dew Point Humidity Pressure Visibility Wind Dir Wind Speed Gust Speed Precip Events Conditions
12:12 AM 64.4 °F 64.4 °F 100% 29.89 in 10.0 mi SSE 4.6 mph - N/A   Overcast
12:32 AM 64.4 °F 64.4 °F 100% 29.89 in 10.0 mi SSE 3.5 mph - N/A   Overcast
12:52 AM 64.4 °F 64.4 °F 100% 29.89 in 10.0 mi South 5.8 mph - N/A   Overcast
1:12 AM 64.4 °F 64.4 °F 100% 29.88 in 10.0 mi South 6.9 mph - N/A   Overcast
1:33 AM 64.4 °F 64.4 °F 100% 29.87 in 10.0 mi South 6.9 mph - N/A   Overcast
1:53 AM 64.4 °F 64.4 °F 100% 29.87 in 10.0 mi South 8.1 mph - N/A   Overcast
2:13 AM 64.4 °F 64.4 °F 100% 29.86 in 10.0 mi South 5.8 mph - N/A   Overcast
2:33 AM 64.4 °F 64.4 °F 100% 29.86 in 10.0 mi South 6.9 mph - N/A   Overcast
2:53 AM 64.4 °F 64.4 °F 100% 29.86 in 10.0 mi SSW 4.6 mph - N/A   Overcast
3:13 AM 64.4 °F 64.4 °F 100% 29.85 in 10.0 mi South 4.6 mph - N/A   Overcast
3:33 AM 64.4 °F 64.4 °F 100% 29.85 in 10.0 mi South 5.8 mph - N/A   Overcast
3:53 AM 64.4 °F 64.4 °F 100% 29.85 in 10.0 mi South 4.6 mph - N/A   Overcast
4:13 AM 64.4 °F 64.4 °F 100% 29.85 in 10.0 mi South 3.5 mph - N/A   Overcast
4:33 AM 64.4 °F 64.4 °F 100% 29.84 in 10.0 mi South 4.6 mph - N/A   Overcast
4:53 AM 64.4 °F 64.4 °F 100% 29.84 in 10.0 mi South 4.6 mph - N/A   Overcast
5:13 AM 64.4 °F 64.4 °F 100% 29.84 in 10.0 mi SSW 5.8 mph - N/A   Overcast
5:33 AM 64.4 °F 64.4 °F 100% 29.84 in 10.0 mi SSW 5.8 mph - N/A   Overcast
5:54 AM 64.4 °F 64.4 °F 100% 29.84 in 10.0 mi SSW 5.8 mph - N/A   Overcast
6:14 AM 64.4 °F 64.4 °F 100% 29.84 in 10.0 mi SSW 5.8 mph - N/A   Overcast
6:34 AM 64.4 °F 64.4 °F 100% 29.85 in 10.0 mi South 4.6 mph - N/A   Overcast
6:54 AM 64.4 °F 64.4 °F 100% 29.85 in 10.0 mi South 3.5 mph - N/A   Overcast
7:14 AM 64.4 °F 64.4 °F 100% 29.84 in 10.0 mi South 3.5 mph - N/A   Overcast
7:34 AM 64.4 °F 64.4 °F 100% 29.84 in 10.0 mi South 3.5 mph - N/A   Overcast
7:49 AM 64.4 °F 64.4 °F 100% 29.84 in 10.0 mi SSW 6.9 mph - N/A   Overcast
8:09 AM 66.2 °F 64.4 °F 94% 29.84 in 10.0 mi SSW 6.9 mph - N/A   Overcast
8:30 AM 68.0 °F 66.2 °F 94% 29.84 in 10.0 mi SW 5.8 mph - N/A   Overcast
8:50 AM 68.0 °F 66.2 °F 94% 29.84 in 10.0 mi WSW 6.9 mph - N/A   Mostly Cloudy
9:10 AM 68.0 °F 64.4 °F 88% 29.84 in 10.0 mi SW 5.8 mph - N/A   Overcast
9:30 AM 68.0 °F 66.2 °F 94% 29.84 in 10.0 mi SW 5.8 mph - N/A   Overcast
9:50 AM 68.0 °F 66.2 °F 94% 29.84 in 10.0 mi SW 6.9 mph - N/A   Overcast
10:10 AM 69.8 °F 66.2 °F 88% 29.83 in 10.0 mi SSW 6.9 mph - N/A   Overcast
10:30 AM 69.8 °F 64.4 °F 83% 29.82 in 10.0 mi WSW 3.5 mph - N/A   Overcast
10:50 AM 69.8 °F 64.4 °F 83% 29.81 in 10.0 mi West 4.6 mph - N/A   Overcast
11:10 AM 71.6 °F 64.4 °F 78% 29.81 in 10.0 mi SW 5.8 mph - N/A   Mostly Cloudy
11:30 AM 71.6 °F 62.6 °F 73% 29.81 in 10.0 mi WSW 6.9 mph - N/A   Mostly Cloudy
11:50 AM 73.4 °F 64.4 °F 73% 29.81 in 10.0 mi West 8.1 mph - N/A   Mostly Cloudy
12:11 PM 71.6 °F 62.6 °F 73% 29.81 in 10.0 mi WSW 6.9 mph - N/A   Scattered Clouds
12:31 PM 73.4 °F 62.6 °F 69% 29.79 in 10.0 mi WSW 5.8 mph - N/A   Scattered Clouds
12:51 PM 73.4 °F 60.8 °F 65% 29.79 in 10.0 mi SW 5.8 mph - N/A   Clear
1:11 PM 75.2 °F 60.8 °F 61% 29.78 in 10.0 mi WSW 4.6 mph - N/A   Clear
1:31 PM 75.2 °F 59.0 °F 57% 29.76 in 10.0 mi West 4.6 mph - N/A   Clear
1:51 PM 77.0 °F 59.0 °F 54% 29.76 in 10.0 mi WSW 4.6 mph - N/A   Clear
2:11 PM 77.0 °F 59.0 °F 54% 29.75 in 10.0 mi SW 8.1 mph - N/A   Clear
2:31 PM 77.0 °F 57.2 °F 50% 29.74 in 10.0 mi South 5.8 mph - N/A   Scattered Clouds
2:51 PM 75.2 °F 53.6 °F 47% 29.73 in 10.0 mi SSE 3.5 mph - N/A   Scattered Clouds
3:12 PM 73.4 °F 59.0 °F 61% 29.74 in 10.0 mi SW 4.6 mph - N/A   Scattered Clouds
3:32 PM 69.8 °F 60.8 °F 73% 29.76 in 10.0 mi SW 20.7 mph 31.1 mph N/A Rain Light Rain
3:52 PM 64.4 °F 62.6 °F 94% 29.76 in 4.0 mi West 12.7 mph 20.7 mph N/A Rain Light Rain
4:12 PM 66.2 °F 66.2 °F 100% 29.75 in 10.0 mi WNW 9.2 mph - N/A Rain Light Rain
4:32 PM 69.8 °F 68.0 °F 94% 29.74 in 10.0 mi NW 9.2 mph - N/A   Scattered Clouds
4:52 PM 71.6 °F 64.4 °F 78% 29.75 in 10.0 mi NW 10.4 mph - N/A   Scattered Clouds
5:12 PM 73.4 °F 60.8 °F 65% 29.76 in 10.0 mi WNW 10.4 mph - N/A   Scattered Clouds
5:32 PM 71.6 °F 59.0 °F 64% 29.75 in 10.0 mi NNW 11.5 mph - N/A   Mostly Cloudy
5:53 PM 69.8 °F 59.0 °F 68% 29.75 in 10.0 mi NNW 10.4 mph 16.1 mph N/A   Overcast
6:13 PM 68.0 °F 60.8 °F 78% 29.75 in 5.0 mi WNW 9.2 mph - N/A Rain Heavy Rain
6:33 PM 64.4 °F 62.6 °F 94% 29.76 in 10.0 mi Calm Calm - N/A Rain Light Rain
6:53 PM 64.4 °F 62.6 °F 94% 29.76 in 10.0 mi West 16.1 mph 23.0 mph N/A   Overcast
7:13 PM 64.4 °F 60.8 °F 88% 29.76 in 10.0 mi West 16.1 mph 23.0 mph N/A   Overcast
7:33 PM 64.4 °F 59.0 °F 83% 29.77 in 10.0 mi WNW 10.4 mph - N/A   Overcast
7:53 PM 64.4 °F 59.0 °F 83% 29.79 in 10.0 mi West 10.4 mph - N/A   Overcast
8:13 PM 64.4 °F 57.2 °F 77% 29.79 in 10.0 mi West 12.7 mph 19.6 mph N/A   Overcast
8:33 PM 64.4 °F 57.2 °F 77% 29.80 in 10.0 mi West 13.8 mph 19.6 mph N/A   Overcast
8:53 PM 62.6 °F 55.4 °F 77% 29.80 in 10.0 mi WSW 17.3 mph 23.0 mph N/A   Mostly Cloudy
9:13 PM 60.8 °F 53.6 °F 77% 29.81 in 10.0 mi West 12.7 mph 20.7 mph N/A   Mostly Cloudy
9:33 PM 60.8 °F 53.6 °F 77% 29.81 in 10.0 mi West 12.7 mph 18.4 mph N/A   Scattered Clouds
9:53 PM 60.8 °F 51.8 °F 72% 29.81 in 10.0 mi West 10.4 mph - N/A   Scattered Clouds
10:14 PM 59.0 °F 51.8 °F 77% 29.82 in 10.0 mi WSW 12.7 mph - N/A   Mostly Cloudy
10:34 PM 59.0 °F 53.6 °F 82% 29.81 in 10.0 mi WSW 9.2 mph - N/A   Mostly Cloudy
10:54 PM 59.0 °F 51.8 °F 77% 29.81 in 10.0 mi West 10.4 mph - N/A   Mostly Cloudy
11:14 PM 59.0 °F 51.8 °F 77% 29.81 in 10.0 mi West 12.7 mph - N/A   Mostly Cloudy
11:34 PM 57.2 °F 51.8 °F 82% 29.82 in 10.0 mi West 8.1 mph - N/A   Scattered Clouds
11:54 PM 55.4 °F 51.8 °F 88% 29.82 in 10.0 mi West 6.9 mph - N/A   Mostly Cloudy